Weather Roundup
Issued by NWS

Home | Current Version | Previous Version | Graphics & Text | Print | Product List | Glossary Off
Versions: 1 2 3 4 5 6 7 8 9 10 11 12 13 14 15 16 17 18 19 20 21 22 23 24 25 26 27 28 29 30 31 32 33 34 35 36 37 38 39 40 41 42 43 44 45 46 47 48 49 50

436
NZUS93 KARX 201710
HRRWXR

CURRENT HOURLY OBSERVATIONS ACROSS
MUCH OF THE UPPER MISSISSIPPI VALLEY
NATIONAL WEATHER SERVICE LA CROSSE WI
1100 AM CST SAT JAN 20 2018


...SOUTHEAST MINNESOTA...


CITY           SKY/WX    TMP DP  RH WIND       PRES   REMARKS
ROCHESTER      FAIR      33  31  92 NW5       29.89R WCI  29
ROCHESTER/MAYO FAIR      32  30  90 CALM      29.90S
WINONA         FAIR      30  28  93 CALM      29.90S
AUSTIN         FAIR      32  30  93 CALM      29.88R
ALBERT LEA     FAIR      36  30  80 CALM      29.90R
DODGE CENTER   FAIR      30  30 100 CALM      29.88S
PRESTON        FAIR      34  30  86 CALM      29.89S
OWATONNA       FAIR      32  30  93 S5        29.90S WCI  27
FARIBAULT      CLOUDY    30  28  93 CALM      29.90R
$$

...ELSEWHERE IN MINNESOTA...


CITY           SKY/WX    TMP DP  RH WIND       PRES   REMARKS
MINNEAPOLIS    FAIR      35  32  88 VRB3      29.89S
INTNL FALLS    PTSUNNY   31  25  78 W5        29.79R WCI  26
DULUTH         FAIR      35  29  78 W7        29.81S WCI  29
RED WING       CLOUDY    30  28  93 CALM      29.90S
REDWOOD FALLS  CLOUDY    36  30  79 CALM      29.89R
MANKATO        CLOUDY    34  31  88 W3        29.91R
WORTHINGTON    CLOUDY    37  31  78 CALM      29.90R
FAIRMONT       CLOUDY    37  33  85 CALM      29.91R
$$

...SOUTHWEST WISCONSIN...


CITY           SKY/WX    TMP DP  RH WIND       PRES   REMARKS
LA CROSSE      FAIR      32  30  92 CALM      29.91S
PRAIRIE DU CHI FAIR      38  29  72 CALM      29.91S
BOSCOBEL       FAIR      39  31  72 CALM      29.91S
LONE ROCK      FAIR      38  31  76 CALM      29.92R
PLATTEVILLE    FAIR      40  33  76 CALM      29.90S
FORT MC COY    FAIR      32  29  89 CALM      29.91F
CAMP DOUGLAS   PTSUNNY   36  32  87 CALM      29.90R
MAUSTON-NEW LI FAIR      36  31  83 CALM      29.90S
VIROQUA        FAIR      34  33  96 CALM      29.89S
WIS DELLS      FAIR      40  30  69 CALM      29.89S
$$

...ELSEWHERE IN WISCONSIN...


CITY           SKY/WX    TMP DP  RH WIND       PRES   REMARKS
MILWAUKEE      PTSUNNY   45  31  58 SW5       29.90R
MADISON        PTSUNNY   40  31  70 CALM      29.90S
GREEN BAY      FAIR      37  29  72 CALM      29.88S
EAU CLAIRE     CLOUDY    31  30  96 S3        29.90R
BLACK RVR FLS  PTSUNNY   33  33  99 CALM      29.91R
MEDFORD        PTSUNNY   30  29  98 SW3       29.88R
WAUSAU         FAIR      35  29  78 CALM      29.88R
WIS RAPIDS     FAIR      31  27  85 SW6       29.91R WCI  25
MARSHFIELD     PTSUNNY   35  30  82 CALM      29.88R
RICE LAKE      FAIR      29  29 100 S3        29.89R
$$

...NORTHEAST IOWA...


CITY           SKY/WX    TMP DP  RH WIND       PRES   REMARKS
WATERLOO       FAIR      41  32  70 E5        29.88F
DUBUQUE        FAIR      42  30  62 CALM      29.90R
DECORAH        FAIR      37  32  81 CALM      29.87F
MASON CITY     CLOUDY    42  33  70 NE3       29.89S
CHARLES CITY   FAIR      41  39  93 CALM      29.88S
OELWEIN        FAIR      39  37  93 CALM      29.89S
$$

...ELSEWHERE IN IOWA...


CITY           SKY/WX    TMP DP  RH WIND       PRES   REMARKS
DES MOINES     MOSUNNY   41  30  65 S6        29.89F
IOWA CITY      FAIR      42  31  64 SW8       29.94R
FORT DODGE     MOSUNNY   38  33  82 E3        29.88S
MARSHALLTOWN   SUNNY     39  32  76 S5        29.88S
CEDAR RAPIDS   FAIR      42  30  62 W5        29.90R
$$

...NORTHERN ILLINOIS...


CITY           SKY/WX    TMP DP  RH WIND       PRES   REMARKS
CHICAGO-OHARE  PTSUNNY   41  29  62 SW8       29.93R
CHICAGO-MIDWAY PTSUNNY   42  31  64 SW9       29.95S
MOLINE         FAIR      45  35  68 SW10      29.93R
ROCKFORD       PTSUNNY   40  30  67 S6        29.94S
PEORIA         CLOUDY    42  34  73 SW10      29.98S
$$

NOTE: "FAIR" INDICATES FEW OR NO CLOUDS BELOW 12,000 FEET WITH NO
SIGNIFICANT WEATHER AND/OR OBSTRUCTIONS TO VISIBILITY. WIND
SPEEDS ARE IN MILES-PER-HOUR.




USA.gov is the U.S. government's official web portal to all federal, state and local government web resources and services.